Location: Oberkirch
(48.5323°N, 8.0787°E)
Time: 17:31:06
(UTC+00:00)

Cosmos 1674 Rocket - Pass Details

Date: 08 November 2025
Orbit: 595 x 623 km, 82.5° (Epoch: 09 December)

Event Time Altitude Azimuth Distance (km) Brightness Sun altitude
Rises 05:40:30 0° 176° (S) 2,889 7.3 -7.7°
Reaches altitude 10° 05:42:45 10° 173° (S) 1,989 6.5 -7.4°
Maximum altitude 05:47:04 57° 95° (E) 742 4.4 -6.7°
Drops below altitude 10° 05:51:25 10° 17° (NNE) 2,007 6.2 -6.0°
Sets 05:53:41 0° 14° (NNE) 2,917 7.0 -5.6°
